Notices

What's New in latest Release from April 7th, 2021:

- Updated Glossary, including Speed of Maximum Gust, and Total Hourly Precipitation

- Updated national and regional climate services offices contacts and prices information

- Addition of station inventory lists for 1981-2010, 1971-2000, and 1961-1990 Normals.

If you haven't already, please take our survey and provide feedback about our website: https://eccc.sondage-survey.ca/f/LanguageSelection.aspx?s=442ca660-fcf1-47c0-95a9-59707d6fd709

Hourly Data Report for April 24, 2017

CLYDE RIVER A
NUNAVUT

70°29'09.000" N
68°31'01.000" W
26.50 m
2400804
71090
YCY

Download Data

Hourly Data (April 2017)
Hourly Data Report for April 24, 2017
TIME
LST
Temp Definition
°C
Dew Point Definition
°C
Rel Hum Definition
%
Precip. Amount Definition
mm

Wind Dir Definition
10's deg

Wind Spd Definition
km/h
Visibility Definition
km
Stn Press Definition
kPa
Hmdx Definition


Wind Chill Definition


Weather Definition


00:00 -21.6 -23.8 83 0.0 29 13 16.1 101.88   -30 LegendNANA
01:00 -20.7 -22.5 86 0.0 25 13 16.1 101.87   -29 Snow
02:00 -20.8 -23.1 82 0.0 28 15 16.1 101.85   -30 Snow
03:00 -20.4 -22.0 88 0.0 27 11 16.1 101.81   -28 LegendNANA
04:00 -21.3 -23.2 85 0.0 28 11 16.1 101.80   -29 Snow
05:00 -21.8 -23.9 83 0.0 29 21 16.1 101.79   -33 LegendNANA
06:00 -20.7 -22.7 84 0.0 30 17 16.1 101.74   -31 LegendNANA
07:00 -19.0 -21.2 83 0.0 31 21 16.1 101.64   -29 LegendNANA
08:00 -17.6 -20.1 81 0.0 30 17 16.1 101.63   -27 LegendNANA
09:00 -16.0 -18.7 80 0.0 31 21 16.1 101.56   -26 LegendNANA
10:00 -14.9 -17.6 80 0.0 32 32 16.1 101.46   -26 LegendNANA
11:00 -14.6 -17.4 79 0.0 31 30 16.1 101.39   -26 LegendNANA
12:00 -14.4 -17.5 78 0.0 32 34 16.1 101.33   -26 LegendNANA
13:00 -14.5 -17.4 79 0.0 31 35 16.1 101.27   -26 LegendNANA
14:00 -14.3 -17.4 78 0.0 31 35 16.1 101.20   -26 LegendNANA
15:00 -14.2 -17.4 77 0.0 31 39 12.9 101.17   -26 LegendNANA
16:00 -14.5 -17.4 79 0.0 31 41 8.1 101.09   -27 Haze
17:00 -14.2 -16.8 81 0.0 31 41 8.1 101.03   -27 Haze
18:00 -14.2 -16.5 83 0.0 31 41 8.1 100.98   -27 Fog
19:00 -13.6 -15.9 83 0.0 32 43 8.1 100.97   -26 Fog
20:00 -13.6 -15.9 83 0.0 32 37 12.9 100.95   -25 LegendNANA
21:00 -13.3 -15.5 84 0.0 31 41 8.1 100.90   -25 Fog
22:00 -13.0 -15.0 85 0.0 31 39 11.3 100.88   -25 Snow
23:00 -12.7 -14.7 85 0.0 31 43 4.8 100.84   -25 Snow

Notes on Data Quality.

Legend

  • E = Estimated
  • M = Missing
  • NA = Not Available*
  • [empty] = Indicates an unobserved value
Date modified: